Vorticity
12 15 13 11 10 8 8 6 4 3 7 9 8 8 10 4 6 8 9 6 8 8 4 3 3 15 8 7 11 11 11 9 9 9 7 7 8 8 8 10 11 11 11
6 7 7 5 6 12 12 11 10 9 8 9 10 11 8 5 2 8 11 6 7 10 8 -2 7 5 6 18 12 10 8 9 9 8 7 8 7 8 9 10 12 12 14
13 13 13 13 12 10 8 8 8 7 7 6 6 9 11 10 12 9 9 9 3 7 -0 3 6 9 16 12 9 9 10 8 7 6 7 8 9 9 8 11 12 14 14
8 8 7 6 5 6 8 11 13 12 12 12 12 11 10 11 12 12 10 8 7 5 -0 2 2 12 11 8 9 8 8 7 7 8 8 9 11 12 13 14 17 16 16
6 6 5 8 7 10 9 8 7 4 3 2 3 10 12 10 10 11 10 9 7 5 2 5 6 12 8 9 8 7 7 8 8 9 11 12 13 13 14 15 17 16 15
7 8 8 8 8 8 7 9 9 10 11 9 7 8 12 11 11 10 9 8 6 5 6 5 8 10 9 7 6 8 9 11 12 12 12 14 14 13 15 16 18 19 17
14 14 13 12 11 9 9 9 9 10 10 13 14 11 10 9 9 9 8 8 8 7 8 10 11 9 8 6 8 8 10 12 14 13 14 13 14 15 19 17 16 11 9
10 10 11 12 12 12 13 13 11 11 10 10 11 12 11 11 10 10 9 8 8 10 10 11 9 7 5 6 7 11 13 14 14 15 13 15 12 16 15 9 4 8 6
10 10 10 11 10 14 14 14 14 13 12 12 11 11 11 11 12 12 12 12 11 9 9 8 7 6 5 6 8 11 13 14 15 12 12 15 17 17 6 7 7 8 7
5 6 6 5 8 9 11 15 15 16 15 13 13 13 12 13 13 13 12 11 9 9 8 7 6 4 5 6 8 12 14 11 11 12 15 15 15 -2 8 8 18 11 11
13 12 12 12 10 8 6 8 10 16 14 13 11 13 14 12 13 12 11 9 8 8 7 7 6 5 6 7 8 14 14 11 11 15 14 13 15 7 5 8 2 11 7
10 11 11 11 11 11 14 12 9 9 15 16 15 11 11 14 11 10 9 8 7 7 7 7 6 6 6 6 9 18 14 11 12 15 13 15 7 3 6 5 6 5 4
14 14 14 14 13 11 10 11 14 11 11 13 16 5 11 18 13 12 8 8 7 6 6 5 6 5 5 6 10 19 17 10 13 15 14 5 4 12 9 7 7 7 8
13 15 15 14 14 14 14 14 11 14 5 15 11 13 10 4 18 0 15 7 7 6 6 6 5 8 4 6 11 20 17 11 14 13 7 8 6 7 8 10 9 3 4
8 8 9 13 15 15 13 17 21 18 14 4 10 8 40 19 18 36 13 32 20 13 14 8 7 5 5 12 17 22 14 11 13 11 10 2 10 5 5 8 8 8 9
14 13 11 9 7 12 14 16 11 21 -1 22 16 7 19 1 49 2 21 2 19 19 8 14 11 14 15 17 18 18 15 12 11 12 9 10 9 8 8 9 8 8 8
14 14 13 15 15 14 11 17 11 14 27 16 15 12 18 -1 18 11 3 33 7 1 5 17 16 15 13 14 17 13 12 15 12 10 8 14 9 -2 2 10 8 9 9
15 14 14 14 15 16 14 11 15 16 14 15 27 15 22 23 11 9 20 -5 10 9 19 15 10 11 13 12 14 16 14 13 16 15 11 3 10 31 0 12 12 10 7
12 13 13 14 14 13 15 16 13 17 18 15 6 23 8 33 21 21 15 5 1 11 9 9 10 10 9 9 12 13 14 15 16 12 8 13 12 4 8 1 -3 1 6
11 12 10 11 12 12 12 16 21 19 17 17 12 17 19 12 20 22 14 13 14 8 4 6 9 13 10 8 9 12 16 15 17 15 15 13 4 4 9 -4 -6 10 8
12 11 10 11 11 12 9 12 17 23 26 18 15 9 18 23 8 8 2 -3 -1 9 11 10 7 7 13 10 8 9 12 13 14 11 10 12 0 17 22 26 20 19 13
12 11 11 10 12 13 13 11 10 14 17 31 21 11 13 17 19 17 5 1 13 4 12 15 8 4 13 12 8 8 9 10 12 12 16 21 22 20 17 13 12 11 7
13 14 14 12 12 11 13 12 12 9 14 8 31 23 13 14 17 15 10 8 5 10 12 17 11 11 12 16 11 9 10 11 8 9 10 10 11 11 10 10 8 6 6
17 16 14 13 12 12 12 16 16 14 8 5 13 21 33 15 8 6 8 13 17 18 14 12 8 7 12 14 11 9 8 9 11 11 8 10 12 8 9 7 6 10 2
15 15 15 13 11 12 12 10 18 20 11 5 17 9 34 39 26 22 18 13 15 14 12 12 10 7 8 12 13 11 10 10 11 8 10 12 12 6 11 11 8 -1 9
13 14 13 14 16 15 15 15 16 21 21 8 20 8 11 14 22 15 20 17 10 14 17 14 13 17 12 12 13 14 15 14 12 13 11 9 4 12 14 -2 4 19 19
Height
3069 3070 3072 3075 3076 3076 3076 3077 3077 3078 3077 3080 3080 3082 3083 3084 3085 3085 3088 3090 3090 3091 3092 3092 3090 3090 3089 3089 3088 3087 3087 3085 3082 3082 3081 3079 3077 3074 3072 3070 3067 3064 3063
3065 3068 3071 3072 3072 3071 3070 3071 3070 3071 3073 3074 3074 3076 3077 3079 3079 3080 3081 3083 3084 3085 3085 3086 3084 3083 3083 3081 3080 3080 3079 3078 3076 3076 3074 3072 3069 3067 3064 3061 3059 3057 3055
3066 3067 3069 3067 3067 3064 3063 3063 3064 3064 3066 3067 3067 3069 3070 3071 3073 3074 3074 3076 3077 3078 3077 3078 3077 3076 3074 3073 3073 3073 3072 3070 3068 3067 3065 3065 3063 3060 3057 3054 3052 3049 3049
3063 3064 3064 3063 3059 3056 3055 3055 3057 3058 3058 3060 3059 3060 3063 3063 3065 3066 3067 3068 3069 3069 3070 3070 3070 3068 3066 3066 3065 3065 3064 3063 3061 3060 3058 3058 3056 3053 3051 3048 3046 3044 3043
3059 3058 3055 3054 3052 3049 3048 3048 3050 3052 3053 3053 3054 3053 3054 3055 3056 3058 3060 3060 3061 3061 3062 3061 3061 3060 3059 3058 3059 3059 3058 3057 3055 3052 3051 3049 3047 3045 3044 3041 3040 3039 3039
3052 3049 3046 3042 3040 3039 3040 3041 3041 3042 3042 3044 3046 3047 3046 3047 3049 3050 3051 3052 3053 3053 3052 3053 3054 3053 3053 3051 3052 3051 3050 3049 3047 3045 3044 3042 3040 3038 3038 3037 3035 3036 3037
3044 3038 3035 3034 3033 3033 3032 3033 3035 3036 3036 3037 3037 3037 3038 3038 3039 3040 3041 3042 3044 3045 3044 3045 3045 3047 3045 3043 3044 3043 3042 3041 3040 3039 3037 3035 3033 3031 3033 3032 3033 3034 3035
3035 3030 3027 3028 3026 3027 3027 3028 3027 3028 3027 3027 3028 3029 3029 3028 3029 3030 3032 3032 3034 3036 3037 3038 3037 3038 3037 3037 3036 3035 3034 3033 3033 3033 3030 3030 3028 3027 3028 3030 3031 3031 3032
3024 3025 3025 3022 3022 3022 3021 3022 3020 3019 3018 3019 3019 3019 3021 3019 3019 3021 3023 3023 3025 3027 3029 3029 3029 3030 3030 3029 3029 3027 3026 3025 3024 3024 3025 3025 3025 3025 3026 3027 3027 3027 3028
3023 3021 3018 3019 3018 3017 3015 3014 3011 3010 3008 3008 3008 3010 3010 3009 3010 3012 3014 3015 3016 3017 3020 3020 3021 3022 3022 3021 3020 3019 3018 3019 3018 3018 3018 3019 3020 3021 3022 3023 3023 3024 3024
3014 3012 3011 3012 3012 3009 3007 3005 3002 3001 2998 2998 2999 3000 2999 3000 3000 3003 3004 3005 3007 3009 3011 3011 3012 3012 3013 3013 3011 3011 3011 3011 3011 3012 3012 3013 3015 3016 3017 3019 3020 3020 3020
3006 3004 3003 3001 2998 2996 2995 2995 2993 2990 2989 2989 2990 2989 2989 2991 2991 2993 2995 2996 2998 3000 3001 3002 3004 3003 3003 3004 3002 3003 3003 3003 3004 3005 3006 3008 3010 3012 3013 3014 3016 3016 3017
2996 2993 2991 2989 2987 2985 2983 2981 2980 2979 2977 2978 2978 2979 2978 2980 2982 2983 2984 2985 2987 2989 2991 2992 2994 2995 2995 2994 2994 2994 2995 2995 2997 2998 3000 3003 3005 3006 3007 3009 3010 3012 3012
2987 2984 2981 2978 2975 2973 2971 2969 2968 2967 2967 2966 2967 2967 2967 2970 2970 2971 2972 2974 2977 2978 2981 2982 2984 2985 2984 2984 2985 2985 2986 2987 2989 2991 2994 2997 2999 3000 3002 3003 3005 3006 3007
2979 2975 2972 2969 2966 2963 2960 2958 2957 2956 2956 2955 2956 2956 2953 2951 2956 2955 2957 2961 2964 2968 2969 2970 2973 2974 2974 2974 2975 2975 2977 2979 2981 2984 2987 2990 2992 2994 2996 2997 2999 3000 3001
2970 2967 2963 2959 2956 2953 2949 2948 2946 2945 2945 2944 2944 2944 2944 2943 2941 2946 2949 2953 2955 2956 2958 2961 2963 2964 2964 2964 2966 2967 2968 2970 2973 2976 2980 2983 2985 2987 2989 2991 2992 2993 2994
2958 2955 2951 2948 2945 2942 2939 2936 2934 2935 2933 2932 2932 2932 2932 2935 2936 2939 2940 2941 2944 2946 2950 2952 2952 2954 2955 2956 2958 2959 2961 2962 2964 2968 2972 2975 2977 2979 2982 2984 2985 2986 2987
2950 2946 2942 2939 2936 2932 2929 2927 2924 2922 2922 2921 2920 2920 2921 2923 2924 2927 2930 2932 2934 2937 2941 2943 2945 2946 2948 2949 2951 2952 2953 2954 2957 2960 2964 2965 2968 2971 2974 2977 2978 2979 2980
2943 2938 2934 2930 2927 2923 2920 2918 2915 2913 2911 2911 2910 2911 2912 2912 2914 2916 2919 2922 2926 2930 2933 2935 2938 2939 2941 2942 2943 2944 2945 2947 2949 2952 2955 2957 2960 2963 2966 2968 2970 2971 2972
2934 2930 2926 2922 2919 2916 2912 2909 2906 2904 2902 2902 2902 2902 2903 2905 2907 2909 2913 2916 2920 2923 2925 2928 2930 2932 2933 2934 2935 2937 2938 2939 2942 2945 2948 2950 2952 2954 2957 2959 2961 2961 2963
2926 2922 2918 2915 2911 2908 2905 2902 2898 2895 2893 2893 2893 2894 2895 2897 2899 2903 2906 2908 2912 2915 2917 2920 2922 2923 2925 2926 2928 2930 2931 2933 2934 2936 2939 2942 2944 2945 2947 2949 2951 2953 2954
2917 2914 2910 2907 2905 2902 2899 2895 2892 2889 2886 2884 2884 2885 2886 2888 2891 2894 2897 2901 2904 2907 2909 2911 2913 2915 2916 2919 2920 2922 2924 2926 2927 2929 2931 2933 2935 2937 2938 2940 2943 2945 2946
2909 2906 2903 2900 2897 2894 2892 2888 2885 2883 2880 2878 2876 2876 2878 2880 2882 2886 2889 2891 2894 2897 2899 2902 2904 2907 2909 2911 2913 2915 2917 2919 2921 2922 2924 2926 2928 2929 2931 2933 2935 2937 2938
2902 2899 2896 2893 2890 2887 2884 2881 2878 2876 2874 2872 2870 2869 2868 2871 2874 2877 2879 2882 2884 2887 2890 2893 2896 2899 2901 2903 2905 2907 2910 2912 2913 2915 2917 2918 2920 2922 2924 2925 2927 2928 2929
2896 2892 2889 2886 2882 2879 2876 2873 2870 2868 2867 2866 2864 2863 2861 2861 2864 2867 2870 2873 2876 2878 2881 2884 2887 2889 2892 2894 2896 2899 2901 2903 2905 2907 2909 2911 2913 2914 2916 2917 2918 2919 2920
2889 2885 2882 2878 2874 2871 2868 2865 2862 2860 2859 2859 2858 2858 2857 2857 2857 2860 2863 2865 2868 2870 2872 2875 2877 2880 2883 2886 2888 2890 2892 2895 2897 2899 2901 2903 2905 2906 2907 2908 2909 2909 2909